Stündliche Wetter Abbey

Heute, 17 Juni, Donnerstag

Zeit Temperatur Niederschläge Wind Luftdruck Luftfeuchtigkeit
00:00 +15°C° 0 mm 2 m/S 701 mmHg 52%
01:00 +14°C° 0 mm 3 m/S 701 mmHg 50%
02:00 +13°C° 0 mm 3 m/S 701 mmHg 48%
03:00 +13°C° 0 mm 3 m/S 701 mmHg 51%
04:00 +13°C° 0 mm 3 m/S 701 mmHg 54%
05:00 +12°C° 0 mm 3 m/S 701 mmHg 58%
06:00 +15°C° 0 mm 4 m/S 701 mmHg 49%
07:00 +17°C° 0 mm 5 m/S 702 mmHg 40%
08:00 +20°C° 0 mm 6 m/S 702 mmHg 32%
09:00 +21°C° 0 mm 6 m/S 702 mmHg 30%
10:00 +21°C° 0 mm 7 m/S 702 mmHg 29%
11:00 +22°C° 0 mm 7 m/S 702 mmHg 27%
12:00 +23°C° 0 mm 8 m/S 702 mmHg 27%
13:00 +23°C° 0 mm 8 m/S 702 mmHg 26%
14:00 +23°C° 0 mm 9 m/S 702 mmHg 26%
15:00 +23°C° 0 mm 9 m/S 702 mmHg 29%
16:00 +22°C° 0 mm 10 m/S 702 mmHg 32%
17:00 +21°C° 0 mm 11 m/S 702 mmHg 35%
18:00 +18°C° 0 mm 10 m/S 702 mmHg 40%
19:00 +17°C° 0 mm 8 m/S 702 mmHg 46%
20:00 +15°C° 0 mm 7 m/S 702 mmHg 52%
21:00 +15°C° 0 mm 6 m/S 702 mmHg 55%
22:00 +14°C° 0 mm 6 m/S 703 mmHg 58%
23:00 +13°C° 0 mm 5 m/S 703 mmHg 61%

Morgen, 18 Juni, Freitag

Zeit Temperatur Niederschläge Wind Luftdruck Luftfeuchtigkeit
00:00 +12°C° 0 mm 5 m/S 703 mmHg 64%
01:00 +12°C° 0 mm 5 m/S 703 mmHg 66%
02:00 +12°C° 0 mm 5 m/S 703 mmHg 69%
03:00 +10°C° 0 mm 5 m/S 703 mmHg 70%
04:00 +10°C° 0 mm 6 m/S 704 mmHg 72%
05:00 +10°C° 0 mm 6 m/S 704 mmHg 73%
06:00 +11°C° 0 mm 6 m/S 704 mmHg 72%
07:00 +11°C° 0 mm 6 m/S 704 mmHg 70%
08:00 +13°C° 0 mm 6 m/S 705 mmHg 68%
09:00 +14°C° 0 mm 5 m/S 705 mmHg 65%
10:00 +14°C° 0 mm 5 m/S 705 mmHg 62%
11:00 +15°C° 0 mm 5 m/S 705 mmHg 60%
12:00 +17°C° 0 mm 4 m/S 704 mmHg 55%
13:00 +18°C° 0 mm 4 m/S 704 mmHg 51%
14:00 +19°C° 0 mm 3 m/S 704 mmHg 47%
15:00 +20°C° 0 mm 3 m/S 703 mmHg 46%
16:00 +20°C° 0 mm 2 m/S 703 mmHg 44%
17:00 +21°C° 0 mm 2 m/S 703 mmHg 42%
18:00 +20°C° 0 mm 2 m/S 702 mmHg 46%
19:00 +19°C° 0 mm 2 m/S 702 mmHg 49%
20:00 +18°C° 0 mm 3 m/S 701 mmHg 53%
21:00 +17°C° 0 mm 3 m/S 701 mmHg 55%
22:00 +16°C° 0 mm 3 m/S 701 mmHg 58%
23:00 +14°C° 0 mm 4 m/S 700 mmHg 61%

übermorgen, 19 Juni, Samstag

Zeit Temperatur Niederschläge Wind Luftdruck Luftfeuchtigkeit
00:00 +14°C° 0 mm 3 m/S 700 mmHg 62%
01:00 +14°C° 0 mm 3 m/S 700 mmHg 63%
02:00 +14°C° 0 mm 3 m/S 700 mmHg 65%
03:00 +14°C° 0.3 mm 3 m/S 699 mmHg 66%
04:00 +14°C° 0.3 mm 3 m/S 699 mmHg 67%
05:00 +14°C° 0.3 mm 4 m/S 698 mmHg 69%
06:00 +15°C° 0 mm 4 m/S 698 mmHg 65%
07:00 +15°C° 0 mm 5 m/S 698 mmHg 62%
08:00 +16°C° 0 mm 5 m/S 697 mmHg 58%
09:00 +17°C° 0 mm 5 m/S 698 mmHg 58%
10:00 +19°C° 0 mm 6 m/S 698 mmHg 58%
11:00 +20°C° 0 mm 6 m/S 698 mmHg 58%
12:00 +19°C° 0.1 mm 6 m/S 698 mmHg 62%
13:00 +17°C° 0.1 mm 6 m/S 698 mmHg 66%
14:00 +16°C° 0.1 mm 6 m/S 698 mmHg 71%
15:00 +17°C° 0.1 mm 5 m/S 698 mmHg 67%
16:00 +17°C° 0.1 mm 5 m/S 698 mmHg 64%
17:00 +17°C° 0.1 mm 5 m/S 698 mmHg 61%
18:00 +18°C° 0.1 mm 4 m/S 699 mmHg 64%
19:00 +17°C° 0.1 mm 4 m/S 699 mmHg 67%
20:00 +16°C° 0.1 mm 3 m/S 699 mmHg 70%
21:00 +14°C° 0 mm 4 m/S 699 mmHg 75%
22:00 +13°C° 0 mm 4 m/S 700 mmHg 80%
23:00 +13°C° 0 mm 4 m/S 700 mmHg 84%

20 Juni, Sonntag

Zeit Temperatur Niederschläge Wind Luftdruck Luftfeuchtigkeit
00:00 +12°C° 0 mm 5 m/S 700 mmHg 85%
01:00 +12°C° 0 mm 5 m/S 701 mmHg 85%
02:00 +10°C° 0 mm 5 m/S 701 mmHg 85%
03:00 +10°C° 0 mm 5 m/S 701 mmHg 84%
04:00 +10°C° 0 mm 5 m/S 702 mmHg 84%
05:00 +10°C° 0 mm 5 m/S 702 mmHg 83%
06:00 +12°C° 0 mm 5 m/S 703 mmHg 72%
07:00 +14°C° 0 mm 6 m/S 703 mmHg 62%
08:00 +15°C° 0 mm 6 m/S 704 mmHg 51%
09:00 +16°C° 0 mm 7 m/S 704 mmHg 46%
10:00 +17°C° 0 mm 7 m/S 705 mmHg 42%
11:00 +18°C° 0 mm 8 m/S 705 mmHg 37%
12:00 +18°C° 0 mm 8 m/S 705 mmHg 35%
13:00 +20°C° 0 mm 8 m/S 705 mmHg 33%
14:00 +20°C° 0 mm 8 m/S 705 mmHg 30%
15:00 +20°C° 0 mm 7 m/S 705 mmHg 30%
16:00 +20°C° 0 mm 7 m/S 705 mmHg 30%
17:00 +20°C° 0 mm 6 m/S 705 mmHg 30%
18:00 +17°C° 0 mm 5 m/S 705 mmHg 35%
19:00 +17°C° 0 mm 4 m/S 705 mmHg 39%
20:00 +15°C° 0 mm 4 m/S 705 mmHg 44%
21:00 +13°C° 0 mm 3 m/S 705 mmHg 48%
22:00 +12°C° 0 mm 3 m/S 705 mmHg 53%
23:00 +12°C° 0 mm 2 m/S 705 mmHg 58%

21 Juni, Montag

Zeit Temperatur Niederschläge Wind Luftdruck Luftfeuchtigkeit
00:00 +10°C° 0 mm 2 m/S 705 mmHg 60%
01:00 +10°C° 0 mm 2 m/S 705 mmHg 62%
02:00 +9°C° 0 mm 2 m/S 705 mmHg 63%
03:00 +9°C° 0 mm 2 m/S 705 mmHg 64%
04:00 +9°C° 0 mm 2 m/S 704 mmHg 64%
05:00 +9°C° 0 mm 2 m/S 704 mmHg 65%
06:00 +12°C° 0 mm 1 m/S 704 mmHg 58%
07:00 +14°C° 0 mm 1 m/S 704 mmHg 51%
08:00 +16°C° 0 mm 1 m/S 705 mmHg 44%
09:00 +18°C° 0 mm 1 m/S 704 mmHg 39%
10:00 +19°C° 0 mm 1 m/S 704 mmHg 35%
11:00 +19°C° 0 mm 2 m/S 703 mmHg 31%
12:00 +21°C° 0 mm 1 m/S 703 mmHg 29%
13:00 +22°C° 0 mm 1 m/S 703 mmHg 26%
14:00 +21°C° 0 mm 0 m/S 702 mmHg 24%
15:00 +21°C° 0 mm 0 m/S 702 mmHg 24%
16:00 +22°C° 0 mm 0 m/S 701 mmHg 23%
17:00 +22°C° 0 mm 0 m/S 701 mmHg 23%
18:00 +23°C° 0 mm 1 m/S 700 mmHg 26%
19:00 +21°C° 0 mm 2 m/S 700 mmHg 29%
20:00 +20°C° 0 mm 3 m/S 699 mmHg 33%
21:00 +19°C° 0 mm 3 m/S 699 mmHg 33%
22:00 +18°C° 0 mm 3 m/S 699 mmHg 34%
23:00 +17°C° 0 mm 3 m/S 699 mmHg 34%

22 Juni, Dienstag

Zeit Temperatur Niederschläge Wind Luftdruck Luftfeuchtigkeit
00:00 +17°C° 0 mm 3 m/S 698 mmHg 36%
01:00 +16°C° 0 mm 3 m/S 698 mmHg 38%
02:00 +14°C° 0 mm 3 m/S 698 mmHg 40%
03:00 +14°C° 0 mm 3 m/S 697 mmHg 42%
04:00 +14°C° 0 mm 3 m/S 697 mmHg 45%
05:00 +15°C° 0 mm 2 m/S 697 mmHg 47%
06:00 +17°C° 0 mm 2 m/S 697 mmHg 44%
07:00 +19°C° 0 mm 2 m/S 697 mmHg 41%
08:00 +23°C° 0 mm 1 m/S 698 mmHg 38%
09:00 +24°C° 0 mm 1 m/S 697 mmHg 35%
10:00 +26°C° 0 mm 2 m/S 697 mmHg 33%
11:00 +28°C° 0 mm 2 m/S 697 mmHg 30%
12:00 +29°C° 0 mm 2 m/S 697 mmHg 29%
13:00 +30°C° 0 mm 2 m/S 697 mmHg 27%
14:00 +31°C° 0 mm 1 m/S 697 mmHg 25%
15:00 +31°C° 0 mm 2 m/S 697 mmHg 25%
16:00 +31°C° 0 mm 2 m/S 697 mmHg 25%
17:00 +31°C° 0 mm 3 m/S 696 mmHg 24%
18:00 +29°C° 0 mm 4 m/S 696 mmHg 30%
19:00 +27°C° 0 mm 4 m/S 696 mmHg 35%
20:00 +26°C° 0 mm 5 m/S 696 mmHg 41%
21:00 +23°C° 0 mm 5 m/S 696 mmHg 42%
22:00 +22°C° 0 mm 6 m/S 696 mmHg 43%
23:00 +21°C° 0 mm 6 m/S 696 mmHg 44%
Mehr zeigen

Wir brauchen deine Erlaubnis

Meteoprog und unser Service Anbieter werden persönliche Daten aufbewahren, so wie Cookies, Geräte Bezeichnung oder ähnliche Technologien von deinem Gerät und Prozess, so wie Persönliche Daten Inhalte und Werbungen, genauso wie social Media und den Verkehr zu analysieren.

  • Aufbewahrung und/oder Zugang zu deiner Geräte Informationen.

    Cookies, Geräte Bezeichnung oder andere Informationen, können aufbewahrt oder Zugang zu deinem Gerät erhalten, für den Grund, der oben angegeben wird.

  • Personalisierte Werbung und Inhalte, Messungen, Einblick in das Publikum und Produkt Entwicklung.

    Werbungen und Inhalte können personalisiert werden, basierend auf ein Profil. Mehr Daten können besser personalisierte Werbungen und Inhalte hinzufügen. Werbung und Inhalte können gezeigt und gemessen werden. Einblicke über das Publikum, welche die Werbung gesehen haben und den Inhalt, können abgeleitet werden. So wie Daten können genutzt werden, um es zu verbessern oder die Benutzer Erfahrung zu verbessern das System und die Software.

Wenn du “Ich stimme zu” klickst, erlaubst du uns, die Cookies zu benutzen die Geräte Bezeichnung, den Web oder ähnliche Technologien zu benutzen. Deine Settings, können in deinem Gerät bei deinem Browser geändert werden.

Für den bestimmten Zweck, berechtigten Interessen beruhen darauf, mehr als auf den Inhalt. Du kannst mehr darüber in unseren Privaten und Cookie Politik lesen.